Tracking 28790 objects as of 19-Apr-2024
HD Live streaming from Space Station
objects crossing your sky now

DELTA 1 DEB

Track DELTA 1 DEB now!
10-day predictions


NORAD ID: 14480
Int'l Code: 1973-086GR
Perigee: 952.7 km
Apogee: 1,101.0 km
Inclination: 102.7 °
Period: 105.5 minutes
Semi major axis: 7397 km
RCS: 0.0103 m2 (small)
Launch date: November 6, 1973
Source: United States (US)
Launch site: AIR FORCE WESTERN TEST RANGE (AFWTR)

Note: This is SATELLITE DEBRIS
Your satellite tracking list
Your tracking list is empty




NASA's NSSDC Master Catalog

Two Line Element Set (TLE):
1 14480U 73086GR  24108.97691317  .00035482  00000-0  42673-1 0  9994
2 14480 102.6836  16.5740 0100185 109.5132  19.6830 13.64407148949225
Source of the keplerian elements: AFSPC